BEL26C MTPP-SYCJ

Flight info

Callsign BEL26C
Flight time 2h 33m
Altitude 37000
Route KENOK1S KENOK DCT RAGUS DCT KARUM DCT GADIR DCT VODIN DCT MASPA DCT ILVAS DCT MITAK DCT KORTO DCT BITAX DCT KALUP DCT EC120
Aircraft A320/M-SDE3FGHIRWY/LB1

Departure

Time 2026-04-29 17:52
Airport Toussaint Louverture International Airport (MTPP)

Arrival

Time 2026-04-29 20:25
Airport Cheddi Jagan International Airport (SYCJ)
Time Latitude Longitude Altitude Speed Heading
2026-04-29 17:16 18.57622 -72.29508 106 ft 0 kts 192°
2026-04-29 17:16 18.57622 -72.29507 106 ft 0 kts 192°
2026-04-29 17:33 18.57626 -72.29506 106 ft 4 kts 189°
2026-04-29 17:33 18.57650 -72.29509 103 ft 4 kts 128°
2026-04-29 17:34 18.57656 -72.29527 106 ft 1 kts 85°
2026-04-29 17:34 18.57656 -72.29531 102 ft 0 kts 85°
2026-04-29 17:48 18.57660 -72.29493 106 ft 10 kts 83°
2026-04-29 17:48 18.57720 -72.29459 106 ft 12 kts
2026-04-29 17:48 18.57822 -72.29464 106 ft 17 kts 347°
2026-04-29 17:48 18.57935 -72.29472 106 ft 16 kts 350°
2026-04-29 17:49 18.57985 -72.29558 104 ft 16 kts 269°
2026-04-29 17:49 18.57978 -72.29696 102 ft 21 kts 265°
2026-04-29 17:49 18.57967 -72.29867 102 ft 25 kts 266°
2026-04-29 17:49 18.57958 -72.30068 99 ft 30 kts 267°
2026-04-29 17:50 18.57946 -72.30252 98 ft 24 kts 266°
2026-04-29 17:50 18.57935 -72.30436 95 ft 26 kts 267°
2026-04-29 17:50 18.57930 -72.30592 90 ft 15 kts 251°
2026-04-29 17:50 18.57905 -72.30670 88 ft 10 kts 294°
2026-04-29 17:51 18.57933 -72.30657 88 ft 3 kts 75°
2026-04-29 17:51 18.57936 -72.30640 90 ft 7 kts 82°
2026-04-29 17:51 18.57952 -72.30308 96 ft 80 kts 87°
2026-04-29 17:51 18.57992 -72.29514 106 ft 134 kts 87°
2026-04-29 17:52 18.58045 -72.28408 395 ft 153 kts 86°
2026-04-29 17:52 18.58087 -72.27660 772 ft 157 kts 86°
2026-04-29 17:52 18.58190 -72.26127 1567 ft 158 kts 89°
2026-04-29 17:52 18.58249 -72.24969 2062 ft 159 kts 90°
2026-04-29 17:53 18.58374 -72.23807 2449 ft 161 kts 75°
2026-04-29 17:53 18.58704 -72.22669 2829 ft 163 kts 72°
2026-04-29 17:53 18.59060 -72.21528 3213 ft 165 kts 71°
2026-04-29 17:53 18.59437 -72.20326 3401 ft 183 kts 72°
2026-04-29 17:54 18.59864 -72.18961 3450 ft 210 kts 72°
2026-04-29 17:54 18.60338 -72.17441 3685 ft 230 kts 72°
2026-04-29 17:54 18.60857 -72.15769 4048 ft 247 kts 72°
2026-04-29 17:54 18.61389 -72.14032 4786 ft 251 kts 72°
2026-04-29 17:55 18.61927 -72.12276 5523 ft 254 kts 72°
2026-04-29 17:55 18.62461 -72.10492 6276 ft 256 kts 77°
2026-04-29 17:55 18.62651 -72.08618 6981 ft 259 kts 93°
2026-04-29 17:55 18.62330 -72.06745 7686 ft 262 kts 109°
2026-04-29 17:56 18.61732 -72.04920 8389 ft 265 kts 110°
2026-04-29 17:56 18.61132 -72.03071 9094 ft 268 kts 109°
2026-04-29 17:56 18.60527 -72.01194 9807 ft 272 kts 110°
2026-04-29 17:56 18.59913 -71.99293 10432 ft 275 kts 111°
2026-04-29 17:57 18.59041 -71.97488 11001 ft 281 kts 126°
2026-04-29 17:57 18.57765 -71.95828 11176 ft 303 kts 131°
2026-04-29 17:57 18.56341 -71.94084 11332 ft 326 kts 132°
2026-04-29 17:57 18.54810 -71.92214 11509 ft 346 kts 132°
2026-04-29 17:58 18.53192 -71.90289 11994 ft 354 kts 137°
2026-04-29 17:58 18.51251 -71.88749 12590 ft 356 kts 153°
2026-04-29 17:58 18.48945 -71.87803 13218 ft 358 kts 168°
2026-04-29 17:58 18.46494 -71.87312 13844 ft 360 kts 171°
2026-04-29 17:59 18.44016 -71.86833 14366 ft 363 kts 171°
2026-04-29 17:59 18.41522 -71.86349 14904 ft 366 kts 171°
2026-04-29 17:59 18.39009 -71.85860 15463 ft 369 kts 171°
2026-04-29 17:59 18.36478 -71.85364 15971 ft 372 kts 171°
2026-04-29 18:00 18.33925 -71.84862 16513 ft 375 kts 171°
2026-04-29 18:00 18.31343 -71.84435 17043 ft 376 kts 179°
2026-04-29 18:00 18.28767 -71.84791 17563 ft 375 kts 200°
2026-04-29 18:00 18.26434 -71.86010 18089 ft 376 kts 211°
2026-04-29 18:01 18.24019 -71.87092 18568 ft 381 kts 197°
2026-04-29 18:01 18.21449 -71.87828 19054 ft 383 kts 196°
2026-04-29 18:01 18.18851 -71.88492 19545 ft 386 kts 191°
2026-04-29 18:01 18.16152 -71.88617 20038 ft 392 kts 177°
2026-04-29 18:02 18.13461 -71.88058 20532 ft 398 kts 164°
2026-04-29 18:02 18.10933 -71.86824 21000 ft 406 kts 150°
2026-04-29 18:02 18.08722 -71.84939 21448 ft 414 kts 138°
2026-04-29 18:02 18.06692 -71.82789 21892 ft 416 kts 138°
2026-04-29 18:03 18.04650 -71.80617 22321 ft 419 kts 138°
2026-04-29 18:03 18.02596 -71.78426 22716 ft 422 kts 138°
2026-04-29 18:03 18.00552 -71.76246 23121 ft 425 kts 139°
2026-04-29 18:03 17.98467 -71.74027 23515 ft 428 kts 139°
2026-04-29 18:04 17.96364 -71.71797 23865 ft 430 kts 139°
2026-04-29 18:04 17.94253 -71.69559 24181 ft 433 kts 139°
2026-04-29 18:04 17.92129 -71.67305 24481 ft 436 kts 139°
2026-04-29 18:04 17.89987 -71.65032 24776 ft 439 kts 139°
2026-04-29 18:05 17.87833 -71.62748 25064 ft 442 kts 139°
2026-04-29 18:05 17.85660 -71.60446 25354 ft 445 kts 139°
2026-04-29 18:05 17.83479 -71.58133 25640 ft 448 kts 139°
2026-04-29 18:05 17.81281 -71.55802 25920 ft 451 kts 140°
2026-04-29 18:06 17.79064 -71.53456 26189 ft 454 kts 140°
2026-04-29 18:06 17.76836 -71.51099 26456 ft 456 kts 140°
2026-04-29 18:06 17.74595 -71.48732 26731 ft 459 kts 140°
2026-04-29 18:06 17.72341 -71.46348 27000 ft 462 kts 140°
2026-04-29 18:07 17.70068 -71.43941 27256 ft 465 kts 140°
2026-04-29 18:07 17.67793 -71.41531 27508 ft 467 kts 140°
2026-04-29 18:07 17.65497 -71.39099 27747 ft 470 kts 140°
2026-04-29 18:07 17.63188 -71.36661 27989 ft 472 kts 140°
2026-04-29 18:08 17.60899 -71.34248 28223 ft 475 kts 140°
2026-04-29 18:08 17.58561 -71.31785 28460 ft 477 kts 140°
2026-04-29 18:08 17.56212 -71.29312 28691 ft 480 kts 140°
2026-04-29 18:08 17.53857 -71.26829 28929 ft 482 kts 140°
2026-04-29 18:09 17.51488 -71.24328 29128 ft 484 kts 140°
2026-04-29 18:09 17.49111 -71.21822 29350 ft 486 kts 140°
2026-04-29 18:09 17.46715 -71.19303 29558 ft 489 kts 140°
2026-04-29 18:09 17.44313 -71.16779 29761 ft 491 kts 140°
2026-04-29 18:10 17.41897 -71.14238 29960 ft 493 kts 140°
2026-04-29 18:10 17.39474 -71.11686 30135 ft 495 kts 140°
2026-04-29 18:10 17.37039 -71.09123 30305 ft 497 kts 140°
2026-04-29 18:10 17.34597 -71.06555 30481 ft 498 kts 140°
2026-04-29 18:11 17.32152 -71.03986 30648 ft 499 kts 140°
2026-04-29 18:11 17.29694 -71.01401 30839 ft 500 kts 140°
2026-04-29 18:11 17.27244 -70.98829 31099 ft 499 kts 140°
2026-04-29 18:11 17.24798 -70.96251 31351 ft 499 kts 139°
2026-04-29 18:12 17.22534 -70.93487 31603 ft 502 kts 135°
2026-04-29 18:12 17.20312 -70.90666 31856 ft 501 kts 135°
2026-04-29 18:12 17.18099 -70.87861 32107 ft 501 kts 135°
2026-04-29 18:12 17.15912 -70.85090 32354 ft 500 kts 135°
2026-04-29 18:13 17.13703 -70.82293 32604 ft 499 kts 135°
2026-04-29 18:13 17.11485 -70.79492 32857 ft 499 kts 135°
2026-04-29 18:13 17.09275 -70.76704 33114 ft 498 kts 135°
2026-04-29 18:13 17.07065 -70.73914 33365 ft 498 kts 135°
2026-04-29 18:14 17.04861 -70.71132 33614 ft 497 kts 135°
2026-04-29 18:14 17.02656 -70.68352 33868 ft 497 kts 135°
2026-04-29 18:14 17.00448 -70.65571 34100 ft 496 kts 135°
2026-04-29 18:14 16.98249 -70.62799 34320 ft 496 kts 135°
2026-04-29 18:15 16.96049 -70.60025 34537 ft 495 kts 135°
2026-04-29 18:15 16.93857 -70.57260 34760 ft 495 kts 135°
2026-04-29 18:15 16.91664 -70.54493 34962 ft 494 kts 135°
2026-04-29 18:15 16.89474 -70.51729 35156 ft 493 kts 135°
2026-04-29 18:16 16.87284 -70.48969 35355 ft 493 kts 135°
2026-04-29 18:16 16.85099 -70.46219 35551 ft 492 kts 135°
2026-04-29 18:16 16.82912 -70.43471 35749 ft 492 kts 136°
2026-04-29 18:16 16.80724 -70.40725 35919 ft 491 kts 136°
2026-04-29 18:17 16.78541 -70.37985 36097 ft 491 kts 136°
2026-04-29 18:17 16.76389 -70.35283 36265 ft 490 kts 136°
2026-04-29 18:17 16.74183 -70.32511 36431 ft 490 kts 136°
2026-04-29 18:17 16.72038 -70.29814 36593 ft 490 kts 136°
2026-04-29 18:18 16.69864 -70.27082 36747 ft 489 kts 136°
2026-04-29 18:18 16.67690 -70.24354 36920 ft 488 kts 136°
2026-04-29 18:18 16.65513 -70.21628 36999 ft 488 kts 136°
2026-04-29 18:19 16.61166 -70.16191 37014 ft 488 kts 136°
2026-04-29 18:19 16.56820 -70.10748 36996 ft 488 kts 136°
2026-04-29 18:20 16.52468 -70.05312 37000 ft 488 kts 136°
2026-04-29 18:20 16.48122 -69.99876 37000 ft 488 kts 136°
2026-04-29 18:21 16.43796 -69.94470 37014 ft 489 kts 136°
2026-04-29 18:21 16.39439 -69.89031 36998 ft 489 kts 136°
2026-04-29 18:22 16.35072 -69.83595 37008 ft 489 kts 136°
2026-04-29 18:22 16.30709 -69.78154 37005 ft 490 kts 136°
2026-04-29 18:23 16.26342 -69.72709 37004 ft 490 kts 136°
2026-04-29 18:23 16.21967 -69.67265 37003 ft 490 kts 136°
2026-04-29 18:24 16.17591 -69.61834 37005 ft 490 kts 136°
2026-04-29 18:24 16.13212 -69.56393 37007 ft 491 kts 136°
2026-04-29 18:25 16.08834 -69.50941 37004 ft 491 kts 136°
2026-04-29 18:25 16.04478 -69.45531 37006 ft 491 kts 136°
2026-04-29 18:26 16.00082 -69.40099 37004 ft 491 kts 136°
2026-04-29 18:26 15.95722 -69.34622 37003 ft 492 kts 135°
2026-04-29 18:27 15.91409 -69.29090 37004 ft 492 kts 134°
2026-04-29 18:27 15.87095 -69.23560 37006 ft 492 kts 135°
2026-04-29 18:28 15.82766 -69.18052 37002 ft 492 kts 135°
2026-04-29 18:28 15.78428 -69.12544 37005 ft 493 kts 135°
2026-04-29 18:29 15.74121 -69.07069 37005 ft 493 kts 135°
2026-04-29 18:29 15.69781 -69.01562 37004 ft 493 kts 135°
2026-04-29 18:30 15.65432 -68.96065 37003 ft 493 kts 135°
2026-04-29 18:30 15.61083 -68.90572 37004 ft 493 kts 135°
2026-04-29 18:31 15.56743 -68.85067 37002 ft 493 kts 135°
2026-04-29 18:31 15.52402 -68.79555 37004 ft 493 kts 135°
2026-04-29 18:32 15.48082 -68.74097 37000 ft 493 kts 135°
2026-04-29 18:32 15.41557 -68.65864 36998 ft 493 kts 135°
2026-04-29 18:33 15.37209 -68.60367 36999 ft 493 kts 135°
2026-04-29 18:33 15.32858 -68.54882 36996 ft 493 kts 135°
2026-04-29 18:34 15.29968 -68.51244 36995 ft 493 kts 135°
2026-04-29 18:34 15.24141 -68.43912 36997 ft 493 kts 135°
2026-04-29 18:35 15.19998 -68.38293 36995 ft 498 kts 126°
2026-04-29 18:35 15.16391 -68.32166 36995 ft 499 kts 126°
2026-04-29 18:36 15.12786 -68.26020 36996 ft 499 kts 126°
2026-04-29 18:36 15.09179 -68.19876 36993 ft 499 kts 126°
2026-04-29 18:37 15.05555 -68.13754 36996 ft 499 kts 126°
2026-04-29 18:37 15.02535 -68.08658 36994 ft 499 kts 126°
2026-04-29 18:38 14.98324 -68.01539 36992 ft 499 kts 126°
2026-04-29 18:38 14.94694 -67.95409 36993 ft 500 kts 126°
2026-04-29 18:39 14.91654 -67.90272 36990 ft 500 kts 125°
2026-04-29 18:39 14.88048 -67.84185 36992 ft 500 kts 125°
2026-04-29 18:40 14.84409 -67.78050 36992 ft 500 kts 125°
2026-04-29 18:40 14.80780 -67.71929 36995 ft 500 kts 125°
2026-04-29 18:41 14.73500 -67.59667 36987 ft 500 kts 125°
2026-04-29 18:42 14.69879 -67.53587 36990 ft 500 kts 125°
2026-04-29 18:42 14.66225 -67.47463 36992 ft 500 kts 125°
2026-04-29 18:43 14.62578 -67.41345 36989 ft 500 kts 125°
2026-04-29 18:43 14.58931 -67.35227 36987 ft 500 kts 125°
2026-04-29 18:44 14.55149 -67.29200 36988 ft 497 kts 132°
2026-04-29 18:44 14.50942 -67.23597 36985 ft 497 kts 131°
2026-04-29 18:45 14.46713 -67.17944 36990 ft 497 kts 131°
2026-04-29 18:45 14.42489 -67.12288 36988 ft 498 kts 131°
2026-04-29 18:46 14.38248 -67.06648 36987 ft 498 kts 131°
2026-04-29 18:46 14.34003 -67.01005 36986 ft 498 kts 131°
2026-04-29 18:47 14.29764 -66.95359 36984 ft 497 kts 131°
2026-04-29 18:47 14.25532 -66.89719 36979 ft 497 kts 131°
2026-04-29 18:48 14.21325 -66.84130 36979 ft 497 kts 131°
2026-04-29 18:48 14.17079 -66.78492 36978 ft 498 kts 131°
2026-04-29 18:49 14.12828 -66.72863 36979 ft 498 kts 131°
2026-04-29 18:49 14.08575 -66.67230 36980 ft 498 kts 131°
2026-04-29 18:50 14.04325 -66.61594 36980 ft 498 kts 131°
2026-04-29 18:50 14.00074 -66.55951 36977 ft 498 kts 131°
2026-04-29 18:51 13.95858 -66.50348 36973 ft 498 kts 131°
2026-04-29 18:51 13.91594 -66.44717 36978 ft 498 kts 131°
2026-04-29 18:52 13.87331 -66.39095 36974 ft 499 kts 131°
2026-04-29 18:52 13.83069 -66.33455 36976 ft 499 kts 131°
2026-04-29 18:53 13.78807 -66.27822 36974 ft 499 kts 131°
2026-04-29 18:53 13.74538 -66.22193 36973 ft 499 kts 131°
2026-04-29 18:54 13.70262 -66.16562 36971 ft 499 kts 131°
2026-04-29 18:54 13.65988 -66.10934 36968 ft 500 kts 131°
2026-04-29 18:55 13.61708 -66.05293 36967 ft 500 kts 131°
2026-04-29 18:55 13.57455 -65.99700 36970 ft 500 kts 131°
2026-04-29 18:56 13.53175 -65.94063 36971 ft 500 kts 131°
2026-04-29 18:56 13.48886 -65.88431 36972 ft 500 kts 131°
2026-04-29 18:57 13.44594 -65.82807 36973 ft 500 kts 131°
2026-04-29 18:57 13.40307 -65.77171 36973 ft 500 kts 131°
2026-04-29 18:58 13.36024 -65.71554 36975 ft 500 kts 131°
2026-04-29 18:58 13.31758 -65.65969 36971 ft 500 kts 131°
2026-04-29 18:59 13.27469 -65.60358 36968 ft 500 kts 131°
2026-04-29 18:59 13.23189 -65.54734 36975 ft 499 kts 131°
2026-04-29 19:00 13.18907 -65.49126 36973 ft 499 kts 131°
2026-04-29 19:00 13.14617 -65.43527 36968 ft 499 kts 131°
2026-04-29 19:01 13.10324 -65.37925 36969 ft 499 kts 131°
2026-04-29 19:01 13.06042 -65.32329 36970 ft 499 kts 131°
2026-04-29 19:02 13.02482 -65.27682 36971 ft 499 kts 131°
2026-04-29 19:02 12.97497 -65.21190 36977 ft 498 kts 131°
2026-04-29 19:03 12.93206 -65.15604 36973 ft 498 kts 131°
2026-04-29 19:03 12.88924 -65.10026 36969 ft 498 kts 131°
2026-04-29 19:04 12.84637 -65.04436 36972 ft 498 kts 131°
2026-04-29 19:04 12.80358 -64.98864 36977 ft 498 kts 131°
2026-04-29 19:05 12.76071 -64.93285 36974 ft 498 kts 131°
2026-04-29 19:05 12.71784 -64.87718 36973 ft 497 kts 131°
2026-04-29 19:06 12.67494 -64.82161 36967 ft 497 kts 131°
2026-04-29 19:07 12.61101 -64.73860 36969 ft 497 kts 130°
2026-04-29 19:07 12.56826 -64.68301 36964 ft 496 kts 130°
2026-04-29 19:08 12.52540 -64.62760 36964 ft 496 kts 131°
2026-04-29 19:08 12.48253 -64.57224 36967 ft 496 kts 130°
2026-04-29 19:09 12.43980 -64.51684 36967 ft 496 kts 130°
2026-04-29 19:09 12.39709 -64.46150 36966 ft 496 kts 130°
2026-04-29 19:10 12.35473 -64.40587 36972 ft 496 kts 125°
2026-04-29 19:10 12.31710 -64.34656 36965 ft 496 kts 124°
2026-04-29 19:11 12.27959 -64.28733 36963 ft 496 kts 124°
2026-04-29 19:11 12.24227 -64.22844 36964 ft 496 kts 124°
2026-04-29 19:12 12.20485 -64.16926 36967 ft 496 kts 124°
2026-04-29 19:12 12.16730 -64.11006 36967 ft 495 kts 124°
2026-04-29 19:13 12.12976 -64.05103 36969 ft 495 kts 124°
2026-04-29 19:13 12.09218 -63.99207 36966 ft 495 kts 124°
2026-04-29 19:14 12.05461 -63.93315 36964 ft 495 kts 124°
2026-04-29 19:14 12.01736 -63.87461 36963 ft 495 kts 124°
2026-04-29 19:15 11.97988 -63.81574 36960 ft 494 kts 124°
2026-04-29 19:15 11.94245 -63.75689 36964 ft 494 kts 124°
2026-04-29 19:16 11.90504 -63.69804 36963 ft 494 kts 124°
2026-04-29 19:16 11.86759 -63.63927 36963 ft 494 kts 124°
2026-04-29 19:17 11.83008 -63.58064 36959 ft 493 kts 124°
2026-04-29 19:17 11.79251 -63.52201 36958 ft 493 kts 124°
2026-04-29 19:18 11.75503 -63.46332 36962 ft 493 kts 124°
2026-04-29 19:18 11.71762 -63.40472 36961 ft 493 kts 124°
2026-04-29 19:19 11.68038 -63.34644 36961 ft 493 kts 124°
2026-04-29 19:19 11.64288 -63.28792 36958 ft 493 kts 124°
2026-04-29 19:20 11.60534 -63.22928 36959 ft 493 kts 124°
2026-04-29 19:20 11.56779 -63.17073 36961 ft 493 kts 124°
2026-04-29 19:21 11.53023 -63.11222 36956 ft 493 kts 124°
2026-04-29 19:21 11.49263 -63.05372 36958 ft 493 kts 124°
2026-04-29 19:22 11.45509 -62.99526 36960 ft 493 kts 124°
2026-04-29 19:22 11.41751 -62.93682 36957 ft 493 kts 124°
2026-04-29 19:23 11.38002 -62.87837 36955 ft 492 kts 124°
2026-04-29 19:23 11.34253 -62.81997 36959 ft 492 kts 124°
2026-04-29 19:24 11.30503 -62.76166 36959 ft 492 kts 124°
2026-04-29 19:24 11.26771 -62.70374 36956 ft 492 kts 124°
2026-04-29 19:25 11.23022 -62.64552 36952 ft 492 kts 124°
2026-04-29 19:25 11.19231 -62.58756 36954 ft 491 kts 125°
2026-04-29 19:26 11.15381 -62.53012 36950 ft 491 kts 125°
2026-04-29 19:26 11.11522 -62.47272 36952 ft 491 kts 125°
2026-04-29 19:27 11.07669 -62.41520 36957 ft 491 kts 125°
2026-04-29 19:27 11.03833 -62.35772 36955 ft 491 kts 125°
2026-04-29 19:28 10.99995 -62.30026 36956 ft 491 kts 125°
2026-04-29 19:28 10.96178 -62.24321 36955 ft 490 kts 125°
2026-04-29 19:29 10.92340 -62.18588 36952 ft 490 kts 125°
2026-04-29 19:29 10.88499 -62.12856 36952 ft 490 kts 125°
2026-04-29 19:30 10.84659 -62.07121 36949 ft 490 kts 125°
2026-04-29 19:30 10.80819 -62.01397 36947 ft 490 kts 125°
2026-04-29 19:31 10.76980 -61.95679 36941 ft 490 kts 125°
2026-04-29 19:31 10.73139 -61.89948 36946 ft 490 kts 124°
2026-04-29 19:32 10.69306 -61.84233 36945 ft 489 kts 125°
2026-04-29 19:32 10.65468 -61.78518 36944 ft 489 kts 124°
2026-04-29 19:33 10.61630 -61.72807 36948 ft 489 kts 124°
2026-04-29 19:33 10.57792 -61.67096 36950 ft 489 kts 124°
2026-04-29 19:34 10.53984 -61.61439 36949 ft 488 kts 125°
2026-04-29 19:34 10.50157 -61.55748 36947 ft 488 kts 124°
2026-04-29 19:35 10.46329 -61.50055 36944 ft 487 kts 124°
2026-04-29 19:35 10.42498 -61.44376 36943 ft 487 kts 124°
2026-04-29 19:36 10.38667 -61.38700 36943 ft 487 kts 124°
2026-04-29 19:36 10.34839 -61.33032 36946 ft 487 kts 124°
2026-04-29 19:37 10.31022 -61.27355 36946 ft 487 kts 124°
2026-04-29 19:37 10.27227 -61.21726 36952 ft 486 kts 124°
2026-04-29 19:38 10.23395 -61.16059 36955 ft 486 kts 124°
2026-04-29 19:38 10.19569 -61.10406 36952 ft 486 kts 124°
2026-04-29 19:39 10.16395 -61.05703 36954 ft 486 kts 124°
2026-04-29 19:39 10.12573 -61.00043 36955 ft 486 kts 124°
2026-04-29 19:40 10.08748 -60.94395 36957 ft 486 kts 124°
2026-04-29 19:40 10.04922 -60.88745 36953 ft 485 kts 124°
2026-04-29 19:41 10.01103 -60.83103 36950 ft 485 kts 124°
2026-04-29 19:41 9.97283 -60.77467 36950 ft 485 kts 124°
2026-04-29 19:42 9.93432 -60.71853 36949 ft 485 kts 127°
2026-04-29 19:42 9.89272 -60.66472 36953 ft 484 kts 130°
2026-04-29 19:43 9.84945 -60.61237 36949 ft 484 kts 130°
2026-04-29 19:43 9.80682 -60.56013 36949 ft 484 kts 129°
2026-04-29 19:44 9.76464 -60.50693 36946 ft 484 kts 129°
2026-04-29 19:44 9.72266 -60.45362 36946 ft 484 kts 129°
2026-04-29 19:45 9.68053 -60.40046 36945 ft 483 kts 129°
2026-04-29 19:45 9.63832 -60.34750 36945 ft 483 kts 129°
2026-04-29 19:46 9.59615 -60.29451 36944 ft 483 kts 129°
2026-04-29 19:46 9.55398 -60.24151 36944 ft 483 kts 129°
2026-04-29 19:47 9.51173 -60.18862 36938 ft 482 kts 129°
2026-04-29 19:47 9.46952 -60.13573 36940 ft 482 kts 129°
2026-04-29 19:48 9.42741 -60.08287 36937 ft 482 kts 129°
2026-04-29 19:48 9.38528 -60.03001 36935 ft 482 kts 129°
2026-04-29 19:49 9.34306 -59.97717 36935 ft 482 kts 129°
2026-04-29 19:49 9.30114 -59.92466 36935 ft 483 kts 129°
2026-04-29 19:50 9.25895 -59.87181 36939 ft 483 kts 129°
2026-04-29 19:50 9.21672 -59.81910 36942 ft 483 kts 129°
2026-04-29 19:51 9.17440 -59.76625 36943 ft 483 kts 129°
2026-04-29 19:51 9.13217 -59.71340 36945 ft 483 kts 129°
2026-04-29 19:52 9.08995 -59.66054 36943 ft 483 kts 129°
2026-04-29 19:52 9.04776 -59.60775 36945 ft 482 kts 129°
2026-04-29 19:53 9.00546 -59.55506 36947 ft 482 kts 129°
2026-04-29 19:53 8.96316 -59.50245 36945 ft 482 kts 129°
2026-04-29 19:54 8.89592 -59.42807 36942 ft 480 kts 142°
2026-04-29 19:54 8.84382 -59.38593 36939 ft 480 kts 142°
2026-04-29 19:55 8.79168 -59.34368 36936 ft 480 kts 142°
2026-04-29 19:55 8.73966 -59.30154 36936 ft 479 kts 142°
2026-04-29 19:56 8.68757 -59.25939 36932 ft 479 kts 142°
2026-04-29 19:56 8.63558 -59.21726 36936 ft 479 kts 142°
2026-04-29 19:57 8.59238 -59.18227 36934 ft 479 kts 142°
2026-04-29 19:57 8.53203 -59.13341 36935 ft 478 kts 142°
2026-04-29 19:58 8.48014 -59.09143 36929 ft 478 kts 142°
2026-04-29 19:58 8.42823 -59.04940 36931 ft 478 kts 142°
2026-04-29 19:59 8.37636 -59.00742 36922 ft 478 kts 142°
2026-04-29 19:59 8.32454 -58.96556 36932 ft 477 kts 142°
2026-04-29 20:00 8.27303 -58.92398 36927 ft 477 kts 142°
2026-04-29 20:00 8.22110 -58.88215 36928 ft 477 kts 142°
2026-04-29 20:01 8.16923 -58.84036 36931 ft 477 kts 142°
2026-04-29 20:01 8.11747 -58.79853 36932 ft 477 kts 142°
2026-04-29 20:02 8.06559 -58.75671 36672 ft 477 kts 141°
2026-04-29 20:02 8.03974 -58.73580 36423 ft 476 kts 141°
2026-04-29 20:02 8.02258 -58.72192 36265 ft 476 kts 141°
2026-04-29 20:03 7.98805 -58.69401 35935 ft 476 kts 141°
2026-04-29 20:03 7.96218 -58.67315 35498 ft 477 kts 141°
2026-04-29 20:03 7.93642 -58.65241 34572 ft 483 kts 141°
2026-04-29 20:03 7.91011 -58.63126 33789 ft 484 kts 141°
2026-04-29 20:04 7.88389 -58.61015 33184 ft 479 kts 141°
2026-04-29 20:04 7.85794 -58.58924 32559 ft 475 kts 141°
2026-04-29 20:04 7.83227 -58.56854 31944 ft 472 kts 140°
2026-04-29 20:04 7.80669 -58.54793 31339 ft 468 kts 140°
2026-04-29 20:05 7.78136 -58.52753 30747 ft 465 kts 140°
2026-04-29 20:05 7.75607 -58.50743 30152 ft 461 kts 143°
2026-04-29 20:05 7.72869 -58.49084 29530 ft 459 kts 154°
2026-04-29 20:05 7.69899 -58.47968 28968 ft 454 kts 164°
2026-04-29 20:06 7.66819 -58.47341 28404 ft 449 kts 168°
2026-04-29 20:06 7.63762 -58.46786 27847 ft 443 kts 168°
2026-04-29 20:06 7.60777 -58.46240 27321 ft 438 kts 168°
2026-04-29 20:06 7.57798 -58.45695 26800 ft 433 kts 168°
2026-04-29 20:07 7.54851 -58.45154 26286 ft 428 kts 168°
2026-04-29 20:07 7.51937 -58.44615 25788 ft 423 kts 168°
2026-04-29 20:07 7.49062 -58.44085 25293 ft 418 kts 167°
2026-04-29 20:07 7.46222 -58.43560 24801 ft 413 kts 167°
2026-04-29 20:08 7.43409 -58.43040 24350 ft 408 kts 167°
2026-04-29 20:08 7.41570 -58.42701 24033 ft 405 kts 167°
2026-04-29 20:08 7.37890 -58.42024 23415 ft 399 kts 167°
2026-04-29 20:08 7.35163 -58.41524 22896 ft 394 kts 167°
2026-04-29 20:09 7.32467 -58.41029 22290 ft 393 kts 167°
2026-04-29 20:09 7.29824 -58.40543 21768 ft 390 kts 167°
2026-04-29 20:09 7.27125 -58.40050 21250 ft 388 kts 167°
2026-04-29 20:09 7.24512 -58.39571 20754 ft 386 kts 167°
2026-04-29 20:10 7.21891 -58.39089 20253 ft 383 kts 167°
2026-04-29 20:10 7.19275 -58.38606 19820 ft 379 kts 167°
2026-04-29 20:10 7.16676 -58.38128 19319 ft 378 kts 167°
2026-04-29 20:10 7.14093 -58.37655 18784 ft 378 kts 167°
2026-04-29 20:11 7.11548 -58.37189 18238 ft 366 kts 167°
2026-04-29 20:11 7.09186 -58.36760 17706 ft 354 kts 167°
2026-04-29 20:11 7.06808 -58.36328 17243 ft 340 kts 167°
2026-04-29 20:11 7.04525 -58.35911 16807 ft 328 kts 167°
2026-04-29 20:12 7.02321 -58.35508 16382 ft 317 kts 167°
2026-04-29 20:12 7.00153 -58.35121 15971 ft 316 kts 171°
2026-04-29 20:12 6.97959 -58.35048 15565 ft 317 kts 182°
2026-04-29 20:12 6.95772 -58.35411 15157 ft 320 kts 189°
2026-04-29 20:13 6.93616 -58.35867 14749 ft 322 kts 189°
2026-04-29 20:13 6.92134 -58.36180 14468 ft 323 kts 189°
2026-04-29 20:13 6.89214 -58.36795 13908 ft 325 kts 190°
2026-04-29 20:13 6.86996 -58.37261 13460 ft 326 kts 190°
2026-04-29 20:14 6.84770 -58.37728 13011 ft 327 kts 190°
2026-04-29 20:14 6.82546 -58.38191 12571 ft 327 kts 190°
2026-04-29 20:14 6.80322 -58.38651 12136 ft 326 kts 190°
2026-04-29 20:14 6.78099 -58.39112 11698 ft 326 kts 190°
2026-04-29 20:15 6.75874 -58.39576 11243 ft 326 kts 190°
2026-04-29 20:15 6.73659 -58.40041 10801 ft 325 kts 190°
2026-04-29 20:15 6.71446 -58.40507 10353 ft 325 kts 190°
2026-04-29 20:15 6.69252 -58.40968 10122 ft 316 kts 190°
2026-04-29 20:16 6.67139 -58.41413 10005 ft 305 kts 190°
2026-04-29 20:16 6.65096 -58.41840 9802 ft 297 kts 190°
2026-04-29 20:16 6.63075 -58.42260 9412 ft 296 kts 190°
2026-04-29 20:16 6.61062 -58.42679 9003 ft 294 kts 190°
2026-04-29 20:17 6.59057 -58.43097 8617 ft 293 kts 190°
2026-04-29 20:17 6.57063 -58.43512 8208 ft 292 kts 189°
2026-04-29 20:17 6.55103 -58.43920 7807 ft 290 kts 189°
2026-04-29 20:17 6.53131 -58.44331 7392 ft 290 kts 189°
2026-04-29 20:18 6.51165 -58.44742 7000 ft 288 kts 189°
2026-04-29 20:18 6.49207 -58.45150 6634 ft 286 kts 189°
2026-04-29 20:18 6.47264 -58.45554 6251 ft 284 kts 190°
2026-04-29 20:18 6.45333 -58.45947 5862 ft 282 kts 187°
2026-04-29 20:19 6.43427 -58.45884 5484 ft 268 kts 163°
2026-04-29 20:19 6.41801 -58.45133 5134 ft 250 kts 141°
2026-04-29 20:19 6.40567 -58.43980 4801 ft 236 kts 133°
2026-04-29 20:19 6.39427 -58.42836 4475 ft 227 kts 133°
2026-04-29 20:20 6.38329 -58.41737 4161 ft 218 kts 133°
2026-04-29 20:20 6.37276 -58.40675 3862 ft 210 kts 128°
2026-04-29 20:20 6.36704 -58.39417 3587 ft 196 kts 89°
2026-04-29 20:20 6.37110 -58.38161 3313 ft 191 kts 49°
2026-04-29 20:21 6.38118 -58.37306 3058 ft 192 kts 42°
2026-04-29 20:21 6.39090 -58.36386 2794 ft 192 kts 47°
2026-04-29 20:21 6.40014 -58.35427 2526 ft 191 kts 46°
2026-04-29 20:21 6.40924 -58.34472 2296 ft 186 kts 46°
2026-04-29 20:22 6.41811 -58.33550 2019 ft 179 kts 46°
2026-04-29 20:22 6.42652 -58.32688 1778 ft 164 kts 46°
2026-04-29 20:22 6.43410 -58.31915 1581 ft 148 kts 46°
2026-04-29 20:22 6.44106 -58.31208 1385 ft 137 kts 46°
2026-04-29 20:23 6.44772 -58.30535 1225 ft 134 kts 45°
2026-04-29 20:23 6.45427 -58.29871 1034 ft 133 kts 44°
2026-04-29 20:23 6.46084 -58.29207 870 ft 133 kts 47°
2026-04-29 20:23 6.46731 -58.28551 676 ft 135 kts 44°
2026-04-29 20:24 6.47389 -58.27889 546 ft 133 kts 48°
2026-04-29 20:24 6.48038 -58.27229 377 ft 132 kts 47°
2026-04-29 20:24 6.48680 -58.26587 287 ft 134 kts 47°
2026-04-29 20:24 6.49333 -58.25930 111 ft 131 kts 47°
2026-04-29 20:25 6.49905 -58.25360 87 ft 94 kts 45°
2026-04-29 20:25 6.50178 -58.25087 81 ft 36 kts 44°
2026-04-29 20:25 6.50281 -58.25059 77 ft 16 kts 322°
2026-04-29 20:25 6.50297 -58.25072 72 ft 1 kts 318°
2026-04-29 20:26 6.50326 -58.25102 73 ft 12 kts 313°
2026-04-29 20:26 6.50343 -58.25155 81 ft 6 kts 252°
2026-04-29 20:26 6.50319 -58.25177 80 ft 5 kts 231°
2026-04-29 20:26 6.50285 -58.25220 82 ft 8 kts 250°
2026-04-29 20:27 6.50299 -58.25254 87 ft 2 kts 306°
2026-04-29 20:27 6.50304 -58.25260 85 ft 1 kts 310°
2026-04-29 20:27 6.50308 -58.25265 86 ft 0 kts 311°